This is the latest recevied weather packets stored in our database for station/object EA7URS-13. If no packets are shown the sender has not sent any weather packets the latest 10 day(s).
| Time | Temp. | Humidity | Pressure | Rain* | Wind** | Luminosity | Snow |
|---|---|---|---|---|---|---|---|
| 1787833882 | 25.56° C | 47% | 1009.5 hPa | 0 mm | - | 560 W/m² | - |
| 1787833575 | 25.56° C | 47% | 1009.5 hPa | 0 mm | - | 560 W/m² | - |
| 1787833273 | 24.44° C | 47% | 1009.5 hPa | 0 mm | - | 267 W/m² | - |
| 1787832976 | 24.44° C | 47% | 1009.5 hPa | 0 mm | - | 267 W/m² | - |
| 1787832670 | 25° C | 47% | 1009.3 hPa | 0 mm | - | 434 W/m² | - |
| 1787832369 | 25° C | 47% | 1009.3 hPa | 0 mm | - | 434 W/m² | - |
| 1787832068 | 24.44° C | 47% | 1009.2 hPa | 0 mm | - | 376 W/m² | - |
| 1787831767 | 24.44° C | 47% | 1009.2 hPa | 0 mm | - | 376 W/m² | - |
| 1787831466 | 25° C | 45% | 1009.5 hPa | 0 mm | - | 336 W/m² | - |
| 1787831165 | 25° C | 45% | 1009.5 hPa | 0 mm | - | 336 W/m² | - |
| 1787830864 | 25.56° C | 44% | 1009.6 hPa | 0 mm | - | 590 W/m² | - |
| 1787830563 | 25.56° C | 44% | 1009.6 hPa | 0 mm | - | 590 W/m² | - |
| 1787830262 | 25.56° C | 44% | 1009.3 hPa | 0 mm | - | 318 W/m² | - |
| 1787829961 | 25.56° C | 44% | 1009.3 hPa | 0 mm | - | 318 W/m² | - |
| 1787829659 | 25.56° C | 47% | 1009.4 hPa | 0 mm | - | 246 W/m² | - |
| 1787829358 | 25.56° C | 47% | 1009.4 hPa | 0 mm | - | 246 W/m² | - |
| 1787829057 | 25° C | 46% | 1009.7 hPa | 0 mm | - | 405 W/m² | - |
| 1787828756 | 25° C | 46% | 1009.7 hPa | 0 mm | - | 405 W/m² | - |
| 1787828455 | 25° C | 46% | 1009.5 hPa | 0 mm | - | 316 W/m² | - |
| 1787828154 | 25° C | 46% | 1009.5 hPa | 0 mm | - | 316 W/m² | - |
| 1787827853 | 24.44° C | 51% | 1009.5 hPa | 0 mm | - | 255 W/m² | - |
| 1787827552 | 24.44° C | 51% | 1009.5 hPa | 0 mm | - | 255 W/m² | - |
| 1787827250 | 23.89° C | 52% | 1009.4 hPa | 0 mm | - | 271 W/m² | - |
| 1787826949 | 23.89° C | 52% | 1009.4 hPa | 0 mm | - | 271 W/m² | - |
| 1787826648 | 24.44° C | 54% | 1009.4 hPa | 0 mm | - | 388 W/m² | - |
* Rain latest hour (hover to see other rain measurements)
** Current wind speed in m/s (hover to see current wind gust speed)